Hourly Data Report for August 04, 2013

All times are specified in Local Standard Time (LST). Add 1 hour to adjust for Daylight Saving Time where and when it is observed.

VICTORIA INTL A
BRITISH COLUMBIA

48°38'50.000" N
123°25'33.000" W
19.50 m
1018621
71799
YYJ

Download Data

Hourly Data (August 2013)
Hourly Data Report for August 4, 2013
Temp Definition
°C
Dew Point Temp Definition
°C
Rel Hum Definition
%
Wind Dir Definition
10's deg

Wind Spd Definition
km/h
Visibility Definition
km
Stn Press Definition
kPa
Hmdx Definition


Wind Chill Definition


Weather Definition


TIME
00:00 Legend Double Dagger 13.3 12.0 92 23 4 32.2 101.60     LegendNANA
01:00 Legend Double Dagger 13.1 12.0 93 33 3 32.2 101.58     Clear
02:00 Legend Double Dagger 14.1 12.7 91 29 4 32.2 101.57     LegendNANA
03:00 Legend Double Dagger 12.9 12.3 96   0 32.2 101.58     LegendNANA
04:00 Legend Double Dagger 12.6 12.0 96 26 4 32.2 101.56     Mainly Clear
05:00 Legend Double Dagger 14.8 14.2 96 20 1 32.2 101.58     LegendNANA
06:00 Legend Double Dagger 13.9 13.0 94 13 4 32.2 101.61     LegendNANA
07:00 Legend Double Dagger 16.1 14.7 91 16 3 32.2 101.64     Mostly Cloudy
08:00 Legend Double Dagger 18.3 15.0 81 7 2 48.3 101.64     LegendNANA
09:00 Legend Double Dagger 19.4 14.3 72 9 8 48.3 101.62     LegendNANA
10:00 Legend Double Dagger 20.4 14.4 68 8 12 48.3 101.62     Mostly Cloudy
11:00 Legend Double Dagger 21.1 14.4 65 10 11 48.3 101.58 25   LegendNANA
12:00 Legend Double Dagger 22.1 14.4 61 10 12 48.3 101.55 26   LegendNANA
13:00 Legend Double Dagger 22.4 14.4 60 10 14 48.3 101.50 26   Clear
14:00 Legend Double Dagger 23.2 14.4 57 11 13 48.3 101.42 27   LegendNANA
15:00 Legend Double Dagger 23.1 14.3 57 13 12 48.3 101.35 27   LegendNANA
16:00 Legend Double Dagger 23.3 13.9 55 12 13 48.3 101.29 27   Clear
17:00 Legend Double Dagger 22.0 13.7 59 10 12 48.3 101.25 25   LegendNANA
18:00 Legend Double Dagger 21.3 13.8 62 8 10 48.3 101.23 25   LegendNANA
19:00 Legend Double Dagger 20.1 13.9 67 12 8 48.3 101.22     Clear
20:00 Legend Double Dagger 17.4 13.0 75 8 10 48.3 101.23     LegendNANA
21:00 Legend Double Dagger 14.4 11.9 85 8 8 48.3 101.26     LegendNANA
22:00 Legend Double Dagger 14.2 11.9 86 12 6 48.3 101.31     Clear
23:00 Legend Double Dagger 14.9 12.3 84 6 2 48.3 101.32     LegendNANA

Notes on Data Quality.

Legend

  • E = Estimated
  • M = Missing
  • NA = Not Available
  • ‡ = Partner data that is not subject to review by the National Climate Archives
Date modified: